Theta_e
301 296 294 297 299 299 297 295 294 297 301 299 299 301 305 309 309 308 311 314 317 319 324 327 329 332 333 343 345 347 348 351 353 352 344 342 341 342 345 349 355 357 355 353
297 293 298 299 299 297 295 293 293 296 299 298 298 297 303 307 308 311 311 311 314 317 322 323 325 335 339 344 344 347 346 350 352 346 344 342 342 341 343 350 355 357 355 353
293 295 299 297 295 294 294 292 292 292 296 298 296 294 299 304 308 310 312 314 315 315 316 322 326 332 336 340 341 344 345 344 346 344 345 348 346 348 349 353 355 354 354 353
294 297 295 294 293 294 290 296 295 293 292 287 296 286 296 300 303 307 309 311 314 316 318 320 324 330 335 337 340 343 345 344 345 349 345 344 339 338 343 352 353 352 353 351
292 294 294 293 294 297 293 297 295 294 292 291 291 288 292 298 298 303 308 310 313 316 317 318 320 324 326 327 330 334 340 345 344 345 345 342 345 345 355 354 352 352 351 347
296 300 298 297 298 298 298 295 294 294 292 285 289 289 290 294 298 301 307 311 313 315 316 317 320 321 322 326 327 332 335 337 344 347 348 347 346 344 347 346 347 345 344 343
293 294 298 300 294 297 295 291 284 282 283 283 291 288 292 298 300 303 304 309 312 315 316 317 318 319 322 324 325 331 340 340 344 345 347 345 343 349 354 349 345 342 340 340
287 285 293 297 294 291 292 291 284 278 280 283 290 285 291 300 303 305 306 310 311 313 314 316 318 321 320 323 326 328 335 337 343 343 343 348 347 349 352 347 343 341 342 343
287 286 295 296 296 296 292 288 293 286 287 284 287 290 295 299 301 303 305 307 311 313 315 318 320 327 329 329 337 332 337 337 339 340 347 348 351 354 350 350 346 345 346 347
292 285 293 295 296 297 294 297 288 289 278 278 284 285 287 295 299 302 303 308 310 313 315 317 319 323 328 330 336 338 342 342 347 348 349 350 353 355 352 352 348 348 349 348
294 291 289 294 291 289 291 291 292 289 287 280 279 284 297 297 299 298 301 307 311 312 314 320 325 334 334 336 332 342 343 346 346 348 349 350 351 353 352 349 345 347 347 345
296 292 285 288 295 297 294 292 291 286 284 287 286 286 299 297 298 300 298 307 311 313 314 326 328 331 334 336 337 340 344 344 347 346 347 346 347 346 346 345 344 345 343 342
296 289 283 285 290 294 290 292 292 293 292 286 283 285 299 298 297 300 300 303 309 310 311 328 328 329 331 334 336 341 344 342 342 343 342 341 341 342 343 343 343 343 342 342
299 291 287 282 286 290 286 290 292 291 287 286 286 288 294 294 296 298 300 304 308 309 311 328 329 334 337 336 337 337 339 340 340 340 340 341 342 342 342 341 342 340 339 338
296 288 290 290 291 291 290 290 291 290 290 286 288 288 292 296 296 297 300 303 305 306 310 327 328 334 335 334 336 336 338 339 339 337 338 340 341 341 340 339 339 339 338 337
297 288 291 288 291 290 288 291 291 291 291 291 291 290 297 299 300 300 301 303 304 306 308 318 329 331 334 334 332 334 335 336 339 336 337 338 337 336 337 338 338 339 335 335
292 290 288 283 290 289 286 290 291 293 294 293 289 294 300 300 299 301 303 304 305 306 308 314 326 330 334 330 333 332 336 337 336 334 334 334 334 333 334 335 334 332 333 336
292 289 288 284 288 279 290 296 295 294 295 296 296 296 299 300 303 304 306 306 306 308 309 319 326 330 332 334 331 332 334 333 331 330 330 331 331 332 332 331 332 333 336 337
298 289 286 283 283 287 289 293 293 291 291 298 297 299 300 303 305 303 309 310 309 311 320 325 328 333 335 336 331 331 330 330 329 329 330 331 330 329 330 330 333 336 334 334
295 293 287 285 281 279 290 293 296 294 286 296 296 297 299 303 297 302 313 314 311 321 323 324 325 331 334 336 331 330 329 328 328 328 329 330 329 331 329 332 334 335 334 334
291 290 285 285 284 288 293 296 296 283 288 297 297 297 298 297 302 306 312 313 317 321 323 326 325 328 332 335 330 329 329 327 331 331 330 330 329 330 334 335 336 334 333 333
290 287 287 287 284 282 297 296 287 293 296 296 297 297 297 301 303 306 310 313 316 318 321 323 325 329 332 332 331 328 329 331 332 331 331 331 331 330 332 335 335 335 334 331
289 293 287 288 290 298 301 298 299 300 296 297 297 299 299 300 302 306 309 312 314 320 321 324 323 329 330 332 330 328 330 332 331 332 328 331 330 328 332 330 331 332 332 331
296 300 294 292 295 296 296 300 300 300 299 299 300 299 300 303 305 306 310 312 317 321 323 323 327 329 329 330 331 333 332 332 332 328 330 332 330 329 332 333 335 333 333 331
297 299 296 295 297 298 297 298 298 298 299 298 299 300 305 308 310 309 310 313 318 321 323 327 328 327 328 329 329 332 333 333 330 329 330 329 330 332 328 319 318 330 318 323
299 295 293 290 296 292 294 297 298 296 296 298 299 302 305 309 311 312 314 320 322 322 324 329 327 327 327 326 329 332 330 334 330 330 328 328 329 332 330 327 320 296 296 297
Wind_Speed
10 12 13 17 17 20 20 22 24 24 24 26 22 25 28 22 26 26 23 18 21 24 16 15 18 20 19 9 9 9 8 7 4 3 4 4 5 5 6 6 7 7 8 10
12 14 14 14 16 17 19 22 25 24 23 22 24 30 29 22 23 21 24 22 22 19 18 24 19 9 8 10 10 9 9 8 7 6 5 4 5 7 7 6 7 7 8 9
12 16 18 16 18 21 20 21 22 24 21 21 25 27 26 27 24 20 20 19 22 22 20 16 14 9 7 9 9 9 10 10 10 11 6 5 6 4 3 4 5 6 8 8
13 17 18 18 20 16 20 19 21 21 21 16 17 18 22 22 25 22 21 24 19 15 15 16 13 9 6 6 7 9 11 12 11 11 9 9 8 7 5 4 6 6 6 7
14 15 15 17 18 18 23 22 23 23 22 22 23 17 17 21 26 21 21 24 24 16 19 19 16 13 12 13 12 11 10 12 14 14 13 9 8 6 3 4 6 6 5 6
20 10 14 9 16 21 19 21 25 23 18 20 24 23 20 20 22 25 21 21 23 22 25 21 19 19 18 17 16 12 14 15 14 12 13 10 8 8 6 7 7 6 5 4
15 11 3 6 10 22 15 14 11 17 16 17 23 23 17 24 23 25 27 22 20 15 16 12 17 17 14 12 13 9 10 12 12 13 12 14 11 11 8 11 9 9 6 5
13 14 8 3 10 17 16 16 7 14 16 16 19 18 13 23 23 23 26 22 23 9 15 16 9 10 15 15 12 13 9 9 9 10 11 9 13 8 8 11 9 7 8 9
14 19 17 19 17 12 17 15 14 12 22 20 18 24 13 22 24 23 25 24 9 11 13 8 8 6 6 7 6 10 10 10 10 11 10 10 11 10 12 11 13 10 10 9
15 19 18 24 21 14 25 18 15 7 7 16 17 17 14 12 24 18 23 17 17 16 8 7 11 12 11 11 6 9 9 11 11 10 10 10 10 8 12 10 14 13 9 12
16 14 17 19 19 19 14 17 9 6 5 7 13 12 12 18 22 27 30 22 9 3 9 9 7 5 6 3 8 7 8 11 11 11 11 11 10 10 12 11 9 12 10 10
11 7 15 21 23 17 10 16 6 8 10 11 13 20 16 21 26 27 29 9 13 7 11 4 10 8 8 8 11 10 11 12 13 10 11 12 12 11 11 10 10 10 9 8
6 6 13 14 14 9 9 21 18 14 9 12 13 11 14 21 22 24 24 28 17 8 16 7 8 12 13 13 12 13 13 12 14 13 13 9 8 10 11 10 9 8 7 6
7 12 15 15 19 10 11 21 21 17 13 17 13 15 13 8 9 20 26 25 17 8 16 4 5 7 11 15 14 12 12 16 14 13 12 11 11 11 10 10 8 8 6 6
3 8 15 19 21 22 23 24 25 22 23 20 18 17 10 10 9 14 22 30 23 12 16 7 6 5 4 14 14 13 15 16 14 14 13 12 11 10 10 8 7 7 7 5
5 8 14 21 21 22 24 23 24 25 22 23 22 17 11 8 19 20 23 23 13 11 14 5 2 7 5 11 12 12 13 14 15 14 14 12 11 11 9 8 7 7 8 7
6 7 10 21 19 16 15 9 19 20 19 10 13 12 16 17 15 14 16 15 13 10 11 7 0 9 4 7 11 11 15 15 14 13 13 12 12 11 8 8 7 8 7 6
6 3 3 10 12 11 8 11 17 19 19 17 15 15 21 17 16 14 18 18 12 13 9 12 3 9 8 4 5 12 15 14 13 13 13 13 12 11 9 6 9 6 7 6
9 1 4 5 6 14 13 10 12 16 23 18 15 14 14 17 19 15 18 16 10 11 6 7 11 7 3 3 7 13 14 13 13 13 13 14 12 11 6 10 8 8 8 5
10 7 3 5 5 5 6 10 10 15 16 15 15 15 17 15 11 5 19 21 8 4 4 5 10 10 7 4 7 14 13 13 13 12 12 11 14 12 9 9 8 7 6 6
5 4 7 10 6 5 2 1 2 3 9 20 18 19 21 16 13 18 22 17 17 2 3 4 11 12 10 7 10 13 12 12 13 13 11 13 11 12 11 7 5 8 6 7
3 3 3 2 5 4 8 5 3 5 16 19 17 17 19 19 21 19 21 17 18 6 5 4 9 18 11 7 13 12 10 14 13 11 15 13 10 9 8 8 6 5 7 9
5 4 4 6 5 11 12 8 9 11 14 13 16 17 19 21 20 22 21 17 19 6 4 3 10 14 11 14 12 12 14 13 10 12 14 12 8 7 10 8 7 6 7 7
11 15 7 4 5 5 11 14 11 11 13 14 14 18 22 22 20 21 18 16 18 6 5 11 9 12 14 15 12 13 14 12 11 14 12 9 8 9 7 6 5 5 6 6
14 12 9 11 7 11 3 9 13 14 13 15 18 20 17 17 19 18 17 14 13 5 9 10 17 14 17 13 13 16 15 13 15 11 10 9 7 8 9 8 5 3 4 2
2 7 4 3 6 1 8 14 15 14 14 16 19 17 17 16 14 15 17 9 7 9 9 12 10 10 17 14 14 16 15 14 13 11 8 8 9 8 8 8 8 15 9 10
Wind_Direction
307 300 273 284 280 279 300 295 284 283 293 298 287 268 261 244 227 233 245 251 244 254 262 258 231 224 224 160 164 167 173 186 186 218 213 227 224 222 228 203 209 192 173 177
277 260 265 287 287 276 281 283 280 286 293 291 285 279 279 274 256 249 225 226 243 260 245 242 249 234 168 164 171 181 187 185 188 211 229 234 215 225 218 192 184 175 162 172
303 304 308 298 292 286 275 273 278 286 291 281 282 281 278 274 281 276 280 271 225 228 250 253 230 225 209 187 188 184 186 197 205 215 232 220 230 251 272 170 160 156 155 168
301 294 283 280 272 273 273 273 277 281 280 271 273 274 262 269 263 258 267 274 267 252 247 254 249 233 222 224 198 190 193 201 208 203 216 215 215 213 204 198 145 147 162 181
289 290 293 289 309 334 312 314 304 287 279 277 265 260 269 268 269 254 251 238 261 255 256 240 245 248 239 238 229 216 207 201 203 202 211 209 213 205 174 130 139 145 125 122
266 275 275 335 311 303 300 289 283 289 274 261 264 262 264 265 269 268 265 249 235 232 238 245 239 241 242 232 223 213 207 211 197 195 190 198 216 207 174 158 134 135 130 131
310 321 343 18 302 321 281 293 287 255 249 262 256 254 260 264 265 266 268 275 266 261 243 236 233 228 229 233 234 212 195 190 183 188 185 196 223 196 185 146 152 152 155 182
323 307 357 166 237 264 273 279 269 283 261 274 291 285 279 312 306 272 269 266 257 264 286 230 252 244 224 218 211 206 183 170 176 183 188 189 205 186 145 146 141 161 174 185
301 293 295 295 300 299 291 286 235 241 273 262 276 286 253 257 259 268 264 257 236 260 263 253 252 266 262 234 192 177 159 174 181 194 186 184 193 188 150 154 155 175 175 174
311 302 301 300 299 276 267 291 294 280 303 279 260 267 271 309 347 264 255 261 249 232 225 261 249 240 239 240 193 161 161 168 163 172 174 179 173 163 147 148 168 167 155 154
317 313 308 303 282 282 300 257 260 12 231 260 277 272 65 355 352 334 328 247 219 227 247 244 241 359 313 193 157 130 165 147 159 162 172 156 174 136 131 150 130 137 149 144
340 292 287 287 286 311 190 284 252 277 290 288 288 280 20 14 351 338 333 38 293 340 290 223 263 251 251 256 134 178 150 160 158 142 119 119 119 126 120 116 122 126 129 144
356 288 308 296 279 42 352 311 306 297 283 261 268 297 47 25 340 330 331 314 294 337 304 170 222 229 217 209 182 153 157 133 112 112 116 116 121 127 123 123 125 134 145 148
274 265 258 277 290 284 246 275 275 284 283 283 272 307 290 25 307 328 306 287 279 318 297 86 196 245 213 185 153 144 127 121 121 125 130 135 135 132 132 133 142 132 144 139
261 263 275 278 283 277 274 263 275 240 245 265 286 289 290 198 191 255 247 262 290 314 315 94 203 242 95 106 105 116 121 132 139 140 138 133 135 132 129 134 139 146 148 128
320 275 293 284 280 278 275 274 272 271 270 268 271 277 304 245 176 223 255 265 283 300 312 14 185 188 148 115 122 137 138 143 137 133 132 139 139 137 141 141 146 115 112 110
282 286 291 276 293 289 290 307 308 329 324 352 308 324 315 334 341 317 310 323 312 300 295 330 35 212 125 125 149 158 134 128 129 133 139 146 148 146 126 136 109 120 111 124
210 222 233 285 294 269 311 348 331 318 310 304 332 325 312 315 300 292 291 312 277 297 292 342 168 229 149 101 143 131 124 131 139 147 154 156 130 125 132 134 124 117 109 112
194 180 278 281 286 288 295 2 344 339 315 352 353 333 318 308 307 281 282 276 281 298 347 14 320 209 135 185 141 132 136 150 153 157 160 127 133 143 152 130 129 120 121 143
161 206 206 299 275 281 53 38 1 342 280 24 349 325 316 310 282 308 340 332 266 64 10 344 326 216 181 186 165 139 154 155 163 148 123 127 138 127 121 134 142 123 140 149
252 207 228 259 261 259 140 298 177 232 318 327 325 313 308 303 309 318 304 309 311 31 19 331 302 199 186 177 153 153 160 166 121 126 121 123 136 137 132 141 137 133 162 132
279 270 262 282 274 299 258 37 215 293 295 297 303 297 292 292 290 289 288 297 300 320 340 299 287 192 178 185 151 156 162 122 125 138 118 133 140 144 138 137 144 149 131 129
318 283 261 205 251 322 341 306 285 276 275 289 295 294 295 288 282 284 286 284 284 316 290 255 284 189 175 162 160 152 123 126 143 122 135 142 143 142 150 145 156 145 150 146
299 299 244 270 248 288 318 303 318 294 292 305 295 291 283 269 261 262 273 275 285 296 290 290 222 170 167 141 153 128 129 139 123 117 121 105 102 120 137 132 147 172 158 157
287 309 304 280 305 313 349 323 317 305 316 304 297 288 284 284 251 250 264 276 283 275 283 252 199 155 134 152 149 131 134 128 115 119 112 118 115 116 89 66 3 95 40 254
349 269 325 293 33 351 293 324 324 329 314 302 301 306 303 292 285 251 254 264 273 260 255 231 164 157 141 156 147 141 143 124 127 130 139 164 148 147 132 119 90 42 39 52